Location: Unspecified
(0.0000°N, 0.0000°E)
Time: 12:33:14
(UTC+00:00)

Amsat-Oscar-6 - Visible Passes

Search period start: 21 September 2021 00:00
Search period end: 01 October 2021 00:00
Orbit: 1448 x 1454 km, 101.9° (Epoch: 20 September)

Date Brightness Start Highest point End Pass type
(mag) Time Alt. Az. Time Alt. Az. Time Alt. Az.
21 Sep ? 02:28:46 10° E 02:31:29 12° ESE 02:34:12 10° SE visible
21 Sep ? 04:15:27 10° NNE 04:23:45 78° WNW 04:32:05 10° SSW visible
22 Sep ? 03:17:09 10° NE 03:24:36 37° ESE 03:32:03 10° S visible
22 Sep ? 05:10:06 10° NNW 05:16:58 30° WNW 05:23:55 10° SW visible
23 Sep ? 04:09:31 10° NNE 04:17:50 86° WNW 04:26:11 10° SSW visible
24 Sep ? 03:11:29 10° NE 03:18:41 33° ESE 03:25:53 10° SSE visible
24 Sep ? 05:03:53 10° NNW 05:11:04 33° WNW 05:18:18 10° SW visible
25 Sep ? 04:03:36 10° NNE 04:11:55 86° ESE 04:20:16 10° SSW visible
26 Sep ? 03:05:52 10° NE 03:12:47 30° ESE 03:19:40 10° SSE visible
26 Sep ? 04:57:44 10° N 05:05:09 37° WNW 05:12:39 10° SW visible
27 Sep ? 03:57:42 10° NNE 04:06:00 78° ESE 04:14:19 10° SSW visible
28 Sep ? 03:00:18 10° NE 03:06:53 26° ESE 03:13:26 10° SSE visible
28 Sep ? 04:51:37 10° N 04:59:15 42° WNW 05:06:56 10° SW visible
29 Sep ? 03:51:50 10° NNE 04:00:05 70° ESE 04:08:22 10° S visible
30 Sep ? 02:54:47 10° ENE 03:00:58 23° ESE 03:07:08 10° SSE visible
30 Sep ? 04:45:31 10° N 04:53:20 47° WNW 05:01:12 10° SW visible
